sat.trackr.live / text

‹ back to catalog

STARLINK-36504

NORAD 67462 · 2026-008T

PAYLOAD ACTIVE UNKNOWN

§ Identity

Operator
Country
US
Launch date
2026-01-14
Launch site
AFETR
Launch vehicle
Mass (kg)
RCS (m²)

Purposes: comms

External: N2YO · Heavens-Above · Gunter

§ Orbital elements

Epoch: 2026-05-25T00:02:10.351680Z

Period
94.27 min
Inclination
43.0010°
Eccentricity
0.0000759
Mean motion
15.27591818 rev/d
Perigee alt
482.5 km
Apogee alt
483.5 km
Semi-major
6,861.2 km
B*
8.5226e-4
RAAN
134.2045°
Arg perigee
264.8630°
Mean anomaly
95.2135°
Rev number
2,124

§ Raw data

STARLINK-365041 67462U 26008T   26145.00150870  .00023273  00000+0  85226-3 0  99922 67462  43.0010 134.2045 0000759 264.8630  95.2135 15.27591818 21245

JSON: /api/v1/satellites/67462 · /tle

For live sub-satellite position, see the globe view (requires WebGL).

§ Visibility from observer

Set your observer location to see the next 7 days of passes ≥ 10°. The values pass through the URL so the page stays shareable.

No JS? Fill the form by hand. The geolocation button needs JavaScript.